SCP
0 0 0 0 0 0 0 0 0 0 0 0 0 0 0 0 0 0 0 -0 -0 -0 -0 -0 -0 0 0 -0 -0 -0 -0 -0 -0 -0 -0 -0 -0 -0 -0 -0 -0 -0 -0 0 0 0 0 0 0
0 0 0 0 0 0 0 0 0 0 0 0 0 0 0 0 0 0 0 -0 -0 -0 -0 0 0 -0 -0 -0 -0 -0 -0 -0 -0 -0 -0 -0 -0 -0 -0 -0 -0 -0 0 0 0 0 0 0 0
0 0 0 0 0 0 0 0 0 0 0 0 0 0 0 0 0 0 0 -0 -0 -0 -0 0 -0 -0 -0 -0 -0 -0 0 -0 -0 -0 -0 -0 -0 -0 -0 -0 -0 0 0 0 0 0 0 0 0
0 0 0 0 0 0 0 0 0 0 0 0 0 0 0 0 0 0 -0 -0 -0 0 0 -0 -0 -0 -0 -0 -0 0 0 -0 -0 -0 -0 -0 -0 0 -0 -0 0 0 0 0 0 0 0 0 0
0 0 0 0 0 0 0 0 0 0 0 0 0 0 0 0 0 0 -0 -0 -0 -0 -0 -0 -0 -0 -0 -0 0 0 0 0 -0 -0 -0 -0 -0 -0 0 0 0 0 0 0 0 0 0 0 0
0 0 0 0 0 0 0 0 0 0 0 0 0 0 0 0 0 0 0 -0 -0 -0 -0 -0 -0 -0 -0 0 0 0 0 0 0 -0 -0 -0 -0 0 0 0 0 0 0 0 0 0 0 0 0
0 0 0 0 0 0 0 0 0 0 0 0 0 0 0 0 0 0 0 -0 -0 -0 -0 -0 -0 -0 -0 -0 0 0 0 0 0 0 0 0 0 0 0 0 0 0 0 0 0 0 0 0 0
0 0 0 0 0 0 0 0 0 0 0 0 0 0 0 0 0 0 0 0 -0 -0 -0 -0 -0 0 0 0 0 0 0 0 0 0 0 0 0 0 0 0 0 0 0 0 0 0 0 0 0
0 0 0 0 0 0 0 0 0 0 0 0 0 0 0 0 0 0 0 0 0 -0 -0 -0 -0 0 0 0 0 0 0 0 0 0 0 0 0 0 0 0 0 0 0 0 0 0 0 0 0
0 0 0 0 0 0 0 0 0 0 0 0 0 0 0 0 0 0 0 0 0 0 0 -0 -0 0 0 0 0 0 0 0 0 0 0 0 0 0 0 0 0 0 0 0 0 0 0 0 0
0 0 0 0 0 0 0 0 0 0 0 0 0 0 0 0 0 0 0 0 0 0 0 -0 0 0 0 0 0 0 0 0 0 0 0 0 0 0 0 0 0 0 0 0 0 0 0 0 0
0 0 0 0 0 0 0 0 0 0 0 0 0 0 0 0 0 0 0 0 0 0 0 0 0 0 0 0 0 0 0 0 0 0 0 0 0 0 0 0 0 0 0 0 0 0 0 0 0
0 0 0 0 0 0 0 0 0 0 0 0 0 0 0 0 0 0 0 0 0 0 0 0 0 0 0 0 0 0 0 0 0 0 0 0 0 0 0 0 0 0 0 0 0 0 0 0 0
0 0 0 0 0 0 0 0 0 0 0 0 0 0 0 0 0 0 0 0 0 0 0 0 0 0 0 0 0 0 0 0 0 0 0 0 0 0 0 0 0 0 0 0 0 0 0 0 0
0 0 0 0 0 0 0 0 0 0 0 0 0 0 0 0 0 0 0 0 0 0 0 0 0 0 0 0 0 0 0 0 0 0 0 0 0 0 0 0 0 0 0 0 0 0 0 0 0
0 0 0 0 0 0 0 0 0 0 0 0 0 0 0 0 0 0 0 0 0 0 0 0 0 0 0 0 0 0 0 0 0 0 0 0 0 0 0 0 0 0 0 0 0 0 0 0 0
0 0 0 0 0 0 0 0 0 0 0 0 0 0 0 0 0 0 0 0 0 0 0 0 0 0 0 0 0 0 0 0 0 0 0 0 0 0 0 0 0 0 0 0 0 0 0 0 0
0 0 0 0 0 0 0 0 0 0 0 0 0 0 0 0 0 0 0 0 0 0 0 0 0 0 0 0 0 0 0 0 0 0 0 0 0 0 0 0 0 0 0 0 0 0 0 0 0
0 0 0 0 0 0 0 0 0 0 0 0 0 0 0 0 0 0 0 0 0 0 0 0 0 0 0 0 0 0 0 0 0 0 0 0 0 0 0 0 0 0 0 0 0 0 0 0 0
0 0 0 0 0 0 0 0 0 0 0 0 0 0 0 0 0 0 0 0 0 0 0 0 0 0 0 0 0 0 0 0 0 0 0 0 0 0 0 0 0 0 0 0 0 0 0 0 -0
0 0 0 0 0 0 0 0 0 0 0 0 0 0 0 0 0 0 0 0 0 0 0 0 0 0 0 0 0 0 0 0 0 0 0 0 0 0 0 0 0 0 0 0 0 0 0 0 0
0 0 0 0 0 0 0 0 0 0 0 0 0 0 0 0 0 0 0 0 0 0 0 0 0 0 0 0 0 0 0 0 0 0 0 0 0 0 0 0 0 0 0 0 0 0 0 0 0
0 0 0 0 0 0 0 0 0 0 0 0 0 0 0 0 0 0 0 0 0 0 0 0 0 0 0 0 0 0 0 0 0 0 0 0 0 0 0 0 0 0 0 0 0 0 0 0 0
0 0 0 0 0 0 0 0 0 0 0 0 0 0 0 0 0 0 0 0 0 0 0 0 0 0 0 0 0 0 0 0 0 0 0 0 0 0 0 0 0 0 0 0 0 0 0 0 0
0 0 0 0 0 0 0 0 0 0 0 0 0 0 0 0 0 0 0 0 0 0 0 0 0 0 0 0 0 0 0 0 0 0 0 0 0 0 0 0 0 0 0 0 0 0 0 0 0
0 0 0 0 0 0 0 0 0 0 0 0 0 0 0 0 0 0 0 0 0 0 0 0 0 0 0 0 0 0 0 0 0 0 0 0 0 0 0 0 0 0 0 0 0 0 0 0 0
0 0 0 0 0 0 0 0 0 0 0 0 0 0 0 0 0 0 0 0 0 0 0 0 0 0 0 0 0 0 0 0 0 0 0 0 0 0 0 0 0 0 0 0 0 0 0 0 0
0 0 0 0 0 0 0 0 0 0 0 0 0 0 0 0 0 0 0 0 0 0 0 0 0 0 0 0 0 0 0 0 0 0 0 0 0 0 0 0 0 0 0 0 0 0 0 0 0
0 0 0 0 0 0 0 0 0 0 0 0 0 0 0 0 0 0 0 0 0 0 0 0 0 0 0 0 0 0 0 0 0 0 0 0 0 0 0 0 0 0 0 0 0 0 0 0 0
0 0 0 0 0 0 0 0 0 -0 0 0 0 0 0 0 0 0 0 0 0 0 0 0 0 0 0 0 0 0 0 0 0 0 0 0 0 0 0 0 0 0 0 0 0 0 0 0 0
Wind_Speed_500mb
19 8 9 5 6 7 3 5 5 4 3 0 10 7 12 13 4 5 27 15 22 20 24 21 17 12 9 7 3 5 9 10 12 15 19 22 25 27 30 32 33 34 37 40 42 43 45 48 49
30 13 5 3 7 3 6 4 6 5 13 16 16 15 11 7 8 22 21 19 22 19 24 19 17 12 8 4 4 10 8 10 12 17 21 25 28 31 33 35 37 40 42 42 43 43 41 41 44
26 10 10 6 5 5 5 6 4 2 9 7 10 15 9 6 16 15 14 16 23 23 22 24 20 13 9 6 8 11 11 11 14 20 25 28 32 35 37 38 41 42 42 41 38 36 34 34 31
22 11 8 6 3 7 5 4 5 1 7 7 18 15 14 12 7 11 21 24 25 24 28 22 19 14 11 8 13 8 10 14 16 22 28 30 33 35 38 39 40 40 39 35 31 28 30 30 30
32 12 8 2 8 7 7 7 3 2 4 7 5 8 10 9 16 26 26 25 20 23 25 22 18 14 10 14 6 8 10 14 18 22 27 31 33 36 40 41 41 38 35 31 28 27 29 30 30
13 10 7 3 7 6 8 6 3 5 7 7 10 13 9 20 27 28 26 25 19 20 23 19 17 15 15 8 4 6 10 14 17 23 29 33 37 39 41 41 37 34 32 29 27 29 30 30 33
12 6 10 4 5 4 6 11 3 5 8 9 8 8 15 24 27 27 26 23 20 17 14 14 14 13 9 5 5 8 12 14 19 25 31 35 38 40 41 38 35 31 27 28 26 27 31 35 34
14 7 6 5 6 3 11 6 4 9 8 8 6 7 10 28 29 29 25 22 19 13 6 4 9 11 5 5 5 9 13 16 21 26 31 35 39 40 38 35 31 26 24 28 30 31 32 35 35
14 7 5 2 9 11 16 7 7 12 15 19 12 10 23 31 29 26 27 22 15 9 7 5 4 5 4 3 5 9 13 18 24 29 34 37 38 37 34 31 26 24 24 26 27 30 34 37 38
6 6 13 7 7 8 16 12 10 9 16 24 26 30 31 27 24 22 23 19 15 10 5 5 5 3 1 4 7 10 14 19 24 29 33 36 37 35 31 27 24 23 21 22 25 32 37 38 42
4 7 18 3 15 19 9 15 15 3 13 20 16 13 25 27 27 21 17 13 10 8 4 2 2 0 2 4 8 11 15 20 25 30 34 37 37 31 26 23 21 20 19 20 24 32 36 42 43
9 12 15 14 16 23 7 12 19 35 11 11 16 14 19 20 18 19 17 15 11 8 6 4 3 2 2 4 7 11 16 21 26 29 32 32 30 26 23 23 20 18 18 21 26 32 37 41 43
7 7 9 20 15 18 36 33 21 35 20 15 19 17 15 13 14 12 15 18 17 14 12 9 5 1 5 8 9 13 17 22 26 30 32 30 26 24 24 22 16 15 16 21 25 33 39 45 44
9 6 5 9 21 10 10 10 13 22 15 20 20 20 16 11 8 6 12 18 19 21 19 15 8 1 5 9 12 14 17 21 25 28 28 26 24 24 25 22 21 19 19 25 28 33 38 46 45
10 2 6 8 16 4 6 9 9 14 9 24 26 24 20 20 13 11 8 12 17 22 22 18 11 3 5 9 13 15 17 21 24 24 23 22 24 26 24 23 22 22 22 23 25 27 30 38 39
8 6 15 3 9 4 5 2 9 12 5 22 24 27 26 26 23 19 18 17 20 24 25 19 13 4 5 11 13 14 16 20 21 22 21 21 25 26 29 28 28 28 19 26 28 33 31 37 41
7 5 10 7 7 7 3 5 3 9 10 19 22 23 27 29 29 28 25 26 27 27 24 19 12 5 3 9 10 11 13 17 19 20 20 22 25 27 29 30 32 33 33 32 32 32 37 37 37
10 7 9 9 15 1 7 6 3 11 13 15 17 21 24 28 31 27 25 25 24 23 20 15 9 3 5 6 6 8 12 15 16 16 19 22 25 26 28 28 28 31 34 38 41 39 35 40 41
12 4 14 16 8 8 10 12 12 10 13 11 13 17 23 26 23 20 20 21 20 18 14 10 6 3 5 3 2 4 8 13 15 16 17 20 28 30 30 31 32 33 37 40 43 48 51 53 58
9 9 7 1 8 7 12 8 6 10 8 9 12 15 20 20 17 16 14 14 14 13 11 8 4 5 4 4 3 5 8 14 20 19 17 25 25 27 29 30 34 35 36 40 43 47 50 48 54
4 14 14 9 7 6 8 7 11 8 15 15 12 16 17 18 14 11 9 9 10 9 9 9 7 8 6 6 5 6 7 8 16 20 21 24 22 24 25 26 28 32 33 38 40 42 44 47 46
8 12 14 9 6 4 4 7 9 13 16 22 21 19 20 19 16 12 9 7 8 10 11 11 9 7 5 5 7 8 11 18 17 15 15 16 18 21 22 24 25 26 28 33 38 39 40 40 44
12 9 15 11 17 7 4 2 6 12 15 24 31 26 23 21 20 17 12 8 7 10 11 12 10 6 8 11 14 17 18 17 13 11 11 13 18 20 23 25 27 27 29 30 32 34 37 37 37
15 12 12 9 7 14 13 11 8 14 15 20 38 40 34 28 26 20 15 11 8 8 10 11 10 6 9 11 14 18 19 17 15 15 13 14 17 19 21 22 24 27 27 31 31 32 33 32 33
5 13 4 3 5 8 6 12 23 8 8 25 46 50 45 38 30 22 18 16 13 12 13 11 11 8 8 8 8 11 13 13 12 14 14 13 14 16 20 22 22 24 27 24 27 29 29 30 32
13 13 10 13 7 6 5 12 10 2 2 18 48 60 47 38 32 27 22 17 16 15 13 13 12 11 10 8 8 11 13 14 17 21 24 25 26 28 27 27 27 27 27 28 28 29 33 34 34
9 8 8 10 5 4 8 10 6 6 8 22 38 51 44 38 33 27 25 22 20 19 16 16 15 15 16 17 20 22 25 27 31 31 31 33 33 34 33 33 34 36 37 38 38 39 42 42 43
12 15 5 4 3 9 9 8 12 17 24 20 29 40 43 39 35 32 29 26 24 22 21 21 21 23 27 28 29 28 28 28 28 28 29 31 33 32 31 33 35 36 38 39 40 43 46 46 48
5 7 5 8 9 9 4 10 5 8 27 29 32 42 52 45 39 34 31 30 28 28 29 30 31 32 31 28 26 25 26 26 27 27 29 30 29 30 31 33 34 36 38 40 41 43 45 47 49
6 16 13 10 10 8 1 12 1 10 22 49 47 51 50 44 41 36 34 35 35 36 36 35 33 30 29 27 25 24 24 24 24 26 27 28 28 29 30 30 31 34 36 37 40 44 45 47 50
Wind_Direction_500mb
224 236 346 337 55 61 250 251 299 169 104 60 142 149 125 64 95 147 133 136 152 153 164 150 142 126 112 86 12 340 330 1 343 341 338 336 332 328 325 325 324 321 319 317 313 310 309 306 303
205 186 25 90 86 68 260 274 232 186 141 106 100 96 55 73 69 132 128 123 137 145 149 140 125 126 129 121 270 317 0 350 342 340 338 336 333 331 331 330 330 327 323 318 313 310 311 309 309
193 189 13 66 90 195 200 220 261 176 146 147 113 79 85 71 114 137 151 142 141 144 144 142 146 157 168 193 256 325 356 342 341 343 339 338 337 336 334 332 329 327 323 321 320 321 323 326 328
149 122 74 47 257 253 221 296 209 209 87 103 116 71 88 96 105 117 132 136 141 134 135 148 158 178 196 226 274 316 357 337 338 345 341 339 339 337 332 332 331 330 330 332 342 345 343 339 338
144 83 60 13 274 268 259 278 194 91 84 85 119 131 74 88 116 122 125 126 138 128 140 160 176 188 221 259 266 348 344 332 338 347 340 339 340 338 337 337 338 342 344 350 355 355 353 353 347
90 100 97 214 247 264 298 332 299 96 85 86 97 101 87 113 127 129 125 124 131 130 151 177 191 207 247 294 323 329 331 326 343 347 344 344 342 342 342 343 349 352 357 3 3 0 0 354 0
110 124 136 228 256 327 345 346 14 92 92 47 104 77 125 131 136 135 132 132 134 145 160 193 214 223 271 285 307 327 327 331 350 352 347 346 344 345 346 349 354 360 5 8 10 8 9 8 6
110 90 98 310 345 12 342 6 68 61 71 72 63 114 153 150 146 144 140 142 147 151 156 204 214 244 244 257 321 335 326 341 352 350 346 347 347 347 349 353 359 7 12 13 26 22 15 11 4
122 89 106 324 346 310 343 18 46 59 88 58 47 91 131 145 147 147 152 152 152 170 191 227 310 301 226 308 352 343 333 347 350 349 347 346 349 351 353 357 7 14 14 24 25 22 18 10 3
102 110 154 246 330 310 325 42 4 66 68 47 57 95 125 137 146 152 157 159 164 175 208 217 255 267 127 13 356 340 342 347 347 347 347 348 350 354 360 7 15 14 19 30 26 20 14 12 11
60 136 166 43 347 348 349 58 39 53 45 20 330 81 132 147 151 158 168 180 178 187 182 232 146 348 45 15 349 343 343 344 345 346 348 350 352 0 8 16 15 23 36 34 22 18 16 11 5
110 85 157 131 2 3 18 83 61 53 32 27 92 136 139 150 158 172 184 191 206 203 192 200 150 80 4 9 350 339 342 341 344 346 350 353 358 9 16 16 24 37 42 26 20 18 13 10 7
62 148 87 105 72 91 84 76 95 45 53 87 103 123 119 129 150 183 201 209 203 202 203 205 201 84 6 1 354 339 340 340 344 349 352 359 6 15 18 14 29 44 43 26 19 11 10 7 8
189 102 28 51 53 89 114 60 139 28 49 83 95 86 78 89 108 172 199 210 205 200 202 202 204 232 345 349 349 344 341 343 347 351 358 5 12 14 10 9 29 48 37 27 14 7 3 4 6
103 68 5 41 357 89 140 44 47 4 51 74 73 78 73 70 84 94 121 177 190 188 189 194 188 218 329 344 348 348 345 346 351 359 8 12 12 9 17 25 31 26 37 21 9 7 5 6 5
81 55 203 21 10 309 76 265 28 35 74 75 77 77 74 68 70 83 98 124 150 159 169 179 176 200 320 343 349 348 348 353 2 9 17 17 14 20 31 36 27 21 27 14 8 2 10 13 11
11 133 185 187 279 286 79 145 21 64 103 89 83 73 75 79 81 83 97 112 127 140 158 170 162 180 319 345 344 345 353 359 10 19 24 24 19 34 38 34 27 21 17 9 7 10 7 9 17
177 171 190 167 202 92 53 115 123 83 105 94 88 86 83 80 78 85 97 110 123 137 150 158 169 211 301 313 337 349 357 2 19 32 39 36 32 40 39 34 31 22 18 16 11 11 12 6 11
167 151 162 177 225 131 194 166 169 130 110 111 108 104 99 90 88 96 104 112 120 134 142 152 177 249 287 272 299 339 12 33 42 48 46 40 48 50 41 32 29 24 22 20 17 16 15 16 11
156 142 135 175 313 166 183 192 148 165 180 160 157 139 129 122 119 109 108 120 127 126 125 129 135 107 135 155 138 86 68 62 57 54 50 54 51 51 43 38 35 28 24 22 19 19 17 19 15
201 183 172 169 134 47 116 268 193 184 163 166 180 164 155 151 137 122 119 118 123 132 124 116 121 117 123 105 108 113 88 89 81 68 56 50 44 44 37 33 29 29 24 24 21 21 18 16 16
202 203 169 193 80 230 199 272 228 175 177 187 189 181 167 149 150 154 154 137 112 113 121 127 124 126 129 138 168 150 109 87 76 63 52 39 33 28 25 23 19 18 18 19 20 16 15 14 13
224 159 188 162 184 35 268 18 249 134 203 206 193 190 174 168 162 169 168 152 136 126 138 138 123 121 127 112 104 96 95 91 85 73 55 45 34 29 30 31 29 26 25 19 13 15 17 16 11
155 94 57 63 56 239 201 175 242 191 203 174 178 187 173 178 179 174 163 149 173 172 152 137 126 133 111 111 106 103 98 95 95 85 75 62 47 37 38 33 28 25 22 22 20 17 15 19 21
137 121 54 22 232 233 163 195 239 192 187 183 173 176 182 183 182 178 178 176 178 193 176 148 139 132 118 101 86 82 82 88 86 79 69 66 62 55 49 37 32 29 29 23 16 17 18 15 10
196 159 156 196 201 241 92 227 249 58 82 180 171 177 179 181 183 180 184 182 185 186 174 159 153 149 131 120 105 95 89 85 82 75 71 68 62 57 49 43 38 37 34 31 27 25 24 20 15
210 177 161 109 84 35 223 277 219 160 136 141 152 172 177 180 181 183 183 185 180 173 167 156 152 144 131 123 110 106 98 94 89 85 80 74 70 65 59 54 50 48 44 42 38 37 35 29 26
167 162 87 35 162 232 263 265 246 222 200 179 172 171 177 179 179 178 174 171 166 161 157 149 142 136 127 118 114 108 102 95 89 85 80 75 70 67 61 57 53 50 47 43 39 37 34 29 27
140 177 101 137 174 198 255 250 194 209 187 186 180 179 183 182 179 176 169 164 161 155 148 143 138 132 127 122 115 109 102 97 92 87 80 75 72 69 63 58 53 48 42 39 34 33 30 25 23
183 185 162 191 216 225 191 266 53 241 196 178 174 181 187 185 180 175 170 164 158 153 149 145 143 139 131 126 121 114 105 97 92 85 81 77 71 66 59 53 48 47 42 37 35 32 29 24 20
Wind_Speed_850mb
19 8 9 5 6 7 3 5 5 4 3 0 10 7 12 13 4 5 27 15 22 20 24 21 17 12 9 7 3 5 9 10 12 15 19 22 25 27 30 32 33 34 37 40 42 43 45 48 49
30 13 5 3 7 3 6 4 6 5 13 16 16 15 11 7 8 22 21 19 22 19 24 19 17 12 8 4 4 10 8 10 12 17 21 25 28 31 33 35 37 40 42 42 43 43 41 41 44
26 10 10 6 5 5 5 6 4 2 9 7 10 15 9 6 16 15 14 16 23 23 22 24 20 13 9 6 8 11 11 11 14 20 25 28 32 35 37 38 41 42 42 41 38 36 34 34 31
22 11 8 6 3 7 5 4 5 1 7 7 18 15 14 12 7 11 21 24 25 24 28 22 19 14 11 8 13 8 10 14 16 22 28 30 33 35 38 39 40 40 39 35 31 28 30 30 30
32 12 8 2 8 7 7 7 3 2 4 7 5 8 10 9 16 26 26 25 20 23 25 22 18 14 10 14 6 8 10 14 18 22 27 31 33 36 40 41 41 38 35 31 28 27 29 30 30
13 10 7 3 7 6 8 6 3 5 7 7 10 13 9 20 27 28 26 25 19 20 23 19 17 15 15 8 4 6 10 14 17 23 29 33 37 39 41 41 37 34 32 29 27 29 30 30 33
12 6 10 4 5 4 6 11 3 5 8 9 8 8 15 24 27 27 26 23 20 17 14 14 14 13 9 5 5 8 12 14 19 25 31 35 38 40 41 38 35 31 27 28 26 27 31 35 34
14 7 6 5 6 3 11 6 4 9 8 8 6 7 10 28 29 29 25 22 19 13 6 4 9 11 5 5 5 9 13 16 21 26 31 35 39 40 38 35 31 26 24 28 30 31 32 35 35
14 7 5 2 9 11 16 7 7 12 15 19 12 10 23 31 29 26 27 22 15 9 7 5 4 5 4 3 5 9 13 18 24 29 34 37 38 37 34 31 26 24 24 26 27 30 34 37 38
6 6 13 7 7 8 16 12 10 9 16 24 26 30 31 27 24 22 23 19 15 10 5 5 5 3 1 4 7 10 14 19 24 29 33 36 37 35 31 27 24 23 21 22 25 32 37 38 42
4 7 18 3 15 19 9 15 15 3 13 20 16 13 25 27 27 21 17 13 10 8 4 2 2 0 2 4 8 11 15 20 25 30 34 37 37 31 26 23 21 20 19 20 24 32 36 42 43
9 12 15 14 16 23 7 12 19 35 11 11 16 14 19 20 18 19 17 15 11 8 6 4 3 2 2 4 7 11 16 21 26 29 32 32 30 26 23 23 20 18 18 21 26 32 37 41 43
7 7 9 20 15 18 36 33 21 35 20 15 19 17 15 13 14 12 15 18 17 14 12 9 5 1 5 8 9 13 17 22 26 30 32 30 26 24 24 22 16 15 16 21 25 33 39 45 44
9 6 5 9 21 10 10 10 13 22 15 20 20 20 16 11 8 6 12 18 19 21 19 15 8 1 5 9 12 14 17 21 25 28 28 26 24 24 25 22 21 19 19 25 28 33 38 46 45
10 2 6 8 16 4 6 9 9 14 9 24 26 24 20 20 13 11 8 12 17 22 22 18 11 3 5 9 13 15 17 21 24 24 23 22 24 26 24 23 22 22 22 23 25 27 30 38 39
8 6 15 3 9 4 5 2 9 12 5 22 24 27 26 26 23 19 18 17 20 24 25 19 13 4 5 11 13 14 16 20 21 22 21 21 25 26 29 28 28 28 19 26 28 33 31 37 41
7 5 10 7 7 7 3 5 3 9 10 19 22 23 27 29 29 28 25 26 27 27 24 19 12 5 3 9 10 11 13 17 19 20 20 22 25 27 29 30 32 33 33 32 32 32 37 37 37
10 7 9 9 15 1 7 6 3 11 13 15 17 21 24 28 31 27 25 25 24 23 20 15 9 3 5 6 6 8 12 15 16 16 19 22 25 26 28 28 28 31 34 38 41 39 35 40 41
12 4 14 16 8 8 10 12 12 10 13 11 13 17 23 26 23 20 20 21 20 18 14 10 6 3 5 3 2 4 8 13 15 16 17 20 28 30 30 31 32 33 37 40 43 48 51 53 58
9 9 7 1 8 7 12 8 6 10 8 9 12 15 20 20 17 16 14 14 14 13 11 8 4 5 4 4 3 5 8 14 20 19 17 25 25 27 29 30 34 35 36 40 43 47 50 48 54
4 14 14 9 7 6 8 7 11 8 15 15 12 16 17 18 14 11 9 9 10 9 9 9 7 8 6 6 5 6 7 8 16 20 21 24 22 24 25 26 28 32 33 38 40 42 44 47 46
8 12 14 9 6 4 4 7 9 13 16 22 21 19 20 19 16 12 9 7 8 10 11 11 9 7 5 5 7 8 11 18 17 15 15 16 18 21 22 24 25 26 28 33 38 39 40 40 44
12 9 15 11 17 7 4 2 6 12 15 24 31 26 23 21 20 17 12 8 7 10 11 12 10 6 8 11 14 17 18 17 13 11 11 13 18 20 23 25 27 27 29 30 32 34 37 37 37
15 12 12 9 7 14 13 11 8 14 15 20 38 40 34 28 26 20 15 11 8 8 10 11 10 6 9 11 14 18 19 17 15 15 13 14 17 19 21 22 24 27 27 31 31 32 33 32 33
5 13 4 3 5 8 6 12 23 8 8 25 46 50 45 38 30 22 18 16 13 12 13 11 11 8 8 8 8 11 13 13 12 14 14 13 14 16 20 22 22 24 27 24 27 29 29 30 32
13 13 10 13 7 6 5 12 10 2 2 18 48 60 47 38 32 27 22 17 16 15 13 13 12 11 10 8 8 11 13 14 17 21 24 25 26 28 27 27 27 27 27 28 28 29 33 34 34
9 8 8 10 5 4 8 10 6 6 8 22 38 51 44 38 33 27 25 22 20 19 16 16 15 15 16 17 20 22 25 27 31 31 31 33 33 34 33 33 34 36 37 38 38 39 42 42 43
12 15 5 4 3 9 9 8 12 17 24 20 29 40 43 39 35 32 29 26 24 22 21 21 21 23 27 28 29 28 28 28 28 28 29 31 33 32 31 33 35 36 38 39 40 43 46 46 48
5 7 5 8 9 9 4 10 5 8 27 29 32 42 52 45 39 34 31 30 28 28 29 30 31 32 31 28 26 25 26 26 27 27 29 30 29 30 31 33 34 36 38 40 41 43 45 47 49
6 16 13 10 10 8 1 12 1 10 22 49 47 51 50 44 41 36 34 35 35 36 36 35 33 30 29 27 25 24 24 24 24 26 27 28 28 29 30 30 31 34 36 37 40 44 45 47 50
Wind_Direction_850mb
224 236 346 337 55 61 250 251 299 169 104 60 142 149 125 64 95 147 133 136 152 153 164 150 142 126 112 86 12 340 330 1 343 341 338 336 332 328 325 325 324 321 319 317 313 310 309 306 303
205 186 25 90 86 68 260 274 232 186 141 106 100 96 55 73 69 132 128 123 137 145 149 140 125 126 129 121 270 317 0 350 342 340 338 336 333 331 331 330 330 327 323 318 313 310 311 309 309
193 189 13 66 90 195 200 220 261 176 146 147 113 79 85 71 114 137 151 142 141 144 144 142 146 157 168 193 256 325 356 342 341 343 339 338 337 336 334 332 329 327 323 321 320 321 323 326 328
149 122 74 47 257 253 221 296 209 209 87 103 116 71 88 96 105 117 132 136 141 134 135 148 158 178 196 226 274 316 357 337 338 345 341 339 339 337 332 332 331 330 330 332 342 345 343 339 338
144 83 60 13 274 268 259 278 194 91 84 85 119 131 74 88 116 122 125 126 138 128 140 160 176 188 221 259 266 348 344 332 338 347 340 339 340 338 337 337 338 342 344 350 355 355 353 353 347
90 100 97 214 247 264 298 332 299 96 85 86 97 101 87 113 127 129 125 124 131 130 151 177 191 207 247 294 323 329 331 326 343 347 344 344 342 342 342 343 349 352 357 3 3 0 0 354 0
110 124 136 228 256 327 345 346 14 92 92 47 104 77 125 131 136 135 132 132 134 145 160 193 214 223 271 285 307 327 327 331 350 352 347 346 344 345 346 349 354 360 5 8 10 8 9 8 6
110 90 98 310 345 12 342 6 68 61 71 72 63 114 153 150 146 144 140 142 147 151 156 204 214 244 244 257 321 335 326 341 352 350 346 347 347 347 349 353 359 7 12 13 26 22 15 11 4
122 89 106 324 346 310 343 18 46 59 88 58 47 91 131 145 147 147 152 152 152 170 191 227 310 301 226 308 352 343 333 347 350 349 347 346 349 351 353 357 7 14 14 24 25 22 18 10 3
102 110 154 246 330 310 325 42 4 66 68 47 57 95 125 137 146 152 157 159 164 175 208 217 255 267 127 13 356 340 342 347 347 347 347 348 350 354 360 7 15 14 19 30 26 20 14 12 11
60 136 166 43 347 348 349 58 39 53 45 20 330 81 132 147 151 158 168 180 178 187 182 232 146 348 45 15 349 343 343 344 345 346 348 350 352 0 8 16 15 23 36 34 22 18 16 11 5
110 85 157 131 2 3 18 83 61 53 32 27 92 136 139 150 158 172 184 191 206 203 192 200 150 80 4 9 350 339 342 341 344 346 350 353 358 9 16 16 24 37 42 26 20 18 13 10 7
62 148 87 105 72 91 84 76 95 45 53 87 103 123 119 129 150 183 201 209 203 202 203 205 201 84 6 1 354 339 340 340 344 349 352 359 6 15 18 14 29 44 43 26 19 11 10 7 8
189 102 28 51 53 89 114 60 139 28 49 83 95 86 78 89 108 172 199 210 205 200 202 202 204 232 345 349 349 344 341 343 347 351 358 5 12 14 10 9 29 48 37 27 14 7 3 4 6
103 68 5 41 357 89 140 44 47 4 51 74 73 78 73 70 84 94 121 177 190 188 189 194 188 218 329 344 348 348 345 346 351 359 8 12 12 9 17 25 31 26 37 21 9 7 5 6 5
81 55 203 21 10 309 76 265 28 35 74 75 77 77 74 68 70 83 98 124 150 159 169 179 176 200 320 343 349 348 348 353 2 9 17 17 14 20 31 36 27 21 27 14 8 2 10 13 11
11 133 185 187 279 286 79 145 21 64 103 89 83 73 75 79 81 83 97 112 127 140 158 170 162 180 319 345 344 345 353 359 10 19 24 24 19 34 38 34 27 21 17 9 7 10 7 9 17
177 171 190 167 202 92 53 115 123 83 105 94 88 86 83 80 78 85 97 110 123 137 150 158 169 211 301 313 337 349 357 2 19 32 39 36 32 40 39 34 31 22 18 16 11 11 12 6 11
167 151 162 177 225 131 194 166 169 130 110 111 108 104 99 90 88 96 104 112 120 134 142 152 177 249 287 272 299 339 12 33 42 48 46 40 48 50 41 32 29 24 22 20 17 16 15 16 11
156 142 135 175 313 166 183 192 148 165 180 160 157 139 129 122 119 109 108 120 127 126 125 129 135 107 135 155 138 86 68 62 57 54 50 54 51 51 43 38 35 28 24 22 19 19 17 19 15
201 183 172 169 134 47 116 268 193 184 163 166 180 164 155 151 137 122 119 118 123 132 124 116 121 117 123 105 108 113 88 89 81 68 56 50 44 44 37 33 29 29 24 24 21 21 18 16 16
202 203 169 193 80 230 199 272 228 175 177 187 189 181 167 149 150 154 154 137 112 113 121 127 124 126 129 138 168 150 109 87 76 63 52 39 33 28 25 23 19 18 18 19 20 16 15 14 13
224 159 188 162 184 35 268 18 249 134 203 206 193 190 174 168 162 169 168 152 136 126 138 138 123 121 127 112 104 96 95 91 85 73 55 45 34 29 30 31 29 26 25 19 13 15 17 16 11
155 94 57 63 56 239 201 175 242 191 203 174 178 187 173 178 179 174 163 149 173 172 152 137 126 133 111 111 106 103 98 95 95 85 75 62 47 37 38 33 28 25 22 22 20 17 15 19 21
137 121 54 22 232 233 163 195 239 192 187 183 173 176 182 183 182 178 178 176 178 193 176 148 139 132 118 101 86 82 82 88 86 79 69 66 62 55 49 37 32 29 29 23 16 17 18 15 10
196 159 156 196 201 241 92 227 249 58 82 180 171 177 179 181 183 180 184 182 185 186 174 159 153 149 131 120 105 95 89 85 82 75 71 68 62 57 49 43 38 37 34 31 27 25 24 20 15
210 177 161 109 84 35 223 277 219 160 136 141 152 172 177 180 181 183 183 185 180 173 167 156 152 144 131 123 110 106 98 94 89 85 80 74 70 65 59 54 50 48 44 42 38 37 35 29 26
167 162 87 35 162 232 263 265 246 222 200 179 172 171 177 179 179 178 174 171 166 161 157 149 142 136 127 118 114 108 102 95 89 85 80 75 70 67 61 57 53 50 47 43 39 37 34 29 27
140 177 101 137 174 198 255 250 194 209 187 186 180 179 183 182 179 176 169 164 161 155 148 143 138 132 127 122 115 109 102 97 92 87 80 75 72 69 63 58 53 48 42 39 34 33 30 25 23
183 185 162 191 216 225 191 266 53 241 196 178 174 181 187 185 180 175 170 164 158 153 149 145 143 139 131 126 121 114 105 97 92 85 81 77 71 66 59 53 48 47 42 37 35 32 29 24 20